This demonstration page uses our WeatherBlox Daily Observations layout. Learn more.

40.92945, -100.16068

Hourly Observations for May 20, 2017

Temp ( °F °C ) Dew Point ( °F °C ) Humidity (%) Winds ( mph kmh ) Pressure ( in mb ) Visibility ( mi km ) Precip ( " mm )
12:15 am 00:15 Cloudy with Nearby Thunderstorms 44 6.6 42 5.6 93 93 N 13 20 30.06 1018 5 8.04672 0.02 0.508
12:35 am 00:35 Cloudy with Light Rain 44 6.5 42 5.4 93 93 N 15 24 30 1016 7 11.265408 0.02 0.508
12:55 am 00:55 Cloudy with Drizzle 44 6.5 42 5.3 92 92 N 13 20 30 1016 7 11.265408 0.03 0.762
1:15 am 01:15 Cloudy with Nearby Thunderstorms 44 6.4 42 5.3 93 93 N 10 17 30.03 1017 7 11.265408 0.01 0.254
1:35 am 01:35 Cloudy with Drizzle 43 6.3 41 5.2 93 93 N 15 24 30.03 1017 7 11.265408 0.02 0.508
1:55 am 01:55 Cloudy with Thunderstorms 43 6.2 41 5.2 93 93 N 15 24 29.97 1015 7 11.265408 0.04 1.016
2:15 am 02:15 Cloudy with Light Rain 43 6.2 41 5.1 93 93 N 16 26 29.97 1015 10 16.09344 0.02 0.508
2:35 am 02:35 Cloudy with Light Rain 43 6.1 41 5 93 93 N 15 24 30 1016 7 11.265408 0.03 0.762
2:55 am 02:55 Cloudy with Rain 43 6.2 41 5.1 93 93 N 9 15 29.97 1015 7 11.265408 0.06 1.524
3:15 am 03:15 Cloudy with Light Rain 43 6.1 41 5 93 93 NNW 9 15 30 1016 3 4.828032 0.11 2.794
3:35 am 03:35 Cloudy with Heavy Rain 42 5.8 40 4.7 93 93 N 12 19 30 1016 5 8.04672 0.2 5.08
3:55 am 03:55 Cloudy with Rain 42 5.6 40 4.7 94 94 NNW 14 22 29.97 1015 3 4.828032 0.27 6.858
4:15 am 04:15 Cloudy with Light Rain 42 5.5 40 4.5 93 93 NNW 14 22 30 1016 10 16.09344 0.05 1.27
4:35 am 04:35 Cloudy with Rain 42 5.5 40 4.7 95 95 NW 10 17 30 1016 7 11.265408 0.09 2.286
4:55 am 04:55 Cloudy with Light Rain 42 5.5 40 4.6 94 94 NNW 13 20 30 1016 10 16.09344 0.11 2.794
5:15 am 05:15 Cloudy with Light Rain 40 4.7 39 3.8 94 94 NW 18 30 30 1016 10 16.09344 0.01 0.254
5:35 am 05:35 Cloudy with Rain 38 3.5 37 2.5 93 93 NNW 20 31 29.97 1015 10 16.09344 0.02 0.508
5:55 am 05:55 Cloudy with Light Rain 38 3.2 37 2.5 95 95 NNW 17 28 29.97 1015 10 16.09344 0.02 0.508
6:15 am 06:15 Cloudy with Light Rain 38 3.2 37 2.5 95 95 NNW 20 31 29.97 1015 10 16.09344 0 0
6:35 am 06:35 Cloudy with Light Rain 37 3 36 2.2 95 95 NNW 21 33 29.94 1014 10 16.09344 0.02 0.508
6:55 am 06:55 Cloudy with Rain 37 2.9 36 2.1 95 95 NNW 17 28 29.97 1015 10 16.09344 0.02 0.508
7:15 am 07:15 Cloudy with Light Drizzle 37 2.7 36 2 95 95 NNW 16 26 30 1016 10 16.09344 0.01 0.254
7:35 am 07:35 Cloudy 37 2.7 36 2 95 95 NW 14 22 30 1016 10 16.09344 0.01 0.254
7:55 am 07:55 Cloudy 37 2.7 36 2 95 95 WNW 14 22 30.03 1017 10 16.09344 0.01 0.254
8:15 am 08:15 Cloudy 37 3 36 2.2 95 95 WNW 14 22 30.03 1017 10 16.09344 0 0
8:35 am 08:35 Cloudy 38 3.1 36 2.4 95 95 NW 13 20 30.03 1017 10 16.09344 0 0
8:55 am 08:55 Cloudy 38 3.2 37 2.5 95 95 NW 16 26 30 1016 7 11.265408 0 0
9:15 am 09:15 Cloudy with Drizzle 38 3.4 37 2.5 94 94 NW 16 26 30 1016 1.75 2.816352 0 0
9:35 am 09:35 Cloudy with Light Rain 38 3.6 37 2.8 95 95 NW 18 30 30 1016 1.75 2.816352 0.01 0.254
9:55 am 09:55 Cloudy with Light Drizzle 38 3.6 37 2.8 95 95 NW 20 31 30 1016 2.5 4.02336 0.01 0.254
10:15 am 10:15 Cloudy with Mist and Fog 39 4 38 3.1 94 94 NW 18 30 30 1016 2.5 4.02336 0 0
10:35 am 10:35 Cloudy with Mist and Fog N/A N/A N/A NW 17 28 N/A 4 6.437376 0 0
10:55 am 10:55 Cloudy N/A N/A N/A NW 20 31 N/A 10 16.09344 0 0
11:15 am 11:15 Cloudy N/A N/A N/A NW 21 33 N/A 10 16.09344 0 0
11:35 am 11:35 Cloudy N/A N/A N/A NW 17 28 N/A 10 16.09344 0 0
11:55 am 11:55 Cloudy N/A N/A N/A NW 18 30 N/A 10 16.09344 0 0
12:15 pm 12:15 Cloudy with Light Drizzle N/A N/A N/A NW 16 26 N/A 7 11.265408 0 0
12:35 pm 12:35 Cloudy with Light Drizzle N/A N/A N/A NW 20 31 N/A 10 16.09344 0 0
12:55 pm 12:55 Cloudy with Light Rain N/A N/A N/A NW 23 37 N/A 7 11.265408 0 0
1:15 pm 13:15 Cloudy N/A N/A N/A NW 22 35 N/A 10 16.09344 0 0
1:35 pm 13:35 Cloudy with Light Rain N/A N/A N/A NW 22 35 N/A 10 16.09344 0 0
1:55 pm 13:55 Cloudy with Light Rain N/A N/A N/A NW 21 33 N/A 10 16.09344 0 0
2:15 pm 14:15 Cloudy with Light Rain N/A N/A N/A NW 21 33 N/A 10 16.09344 0 0
2:35 pm 14:35 Cloudy with Light Rain N/A N/A N/A NNW 22 35 N/A 7 11.265408 0.01 0.254
2:55 pm 14:55 Cloudy 136 57.7 133 56.2 93 93 NNW 24 39 29.59 1002 10 16.09344 0.01 0.254
3:15 pm 15:15 Cloudy 80 26.5 77 25.1 92 92 NNW 23 37 29.8 1009 10 16.09344 0 0
3:35 pm 15:35 Cloudy N/A N/A N/A NNW 22 35 N/A 10 16.09344 0 0
3:55 pm 15:55 Cloudy N/A N/A N/A NW 21 33 N/A 10 16.09344 0 0
4:15 pm 16:15 Cloudy N/A N/A N/A WNW 16 26 N/A 10 16.09344 0 0
4:35 pm 16:35 Cloudy with Light Drizzle N/A N/A N/A WNW 17 28 N/A 10 16.09344 0 0
4:55 pm 16:55 Cloudy 76 24.5 71 21.8 85 85 NW 17 28 29.85 1011 10 16.09344 0 0
5:15 pm 17:15 Cloudy N/A N/A N/A NW 18 30 N/A 10 16.09344 0 0
5:35 pm 17:35 Cloudy 52 11.1 47 8.5 84 84 NW 24 39 29.97 1015 10 16.09344 0 0
5:55 pm 17:55 Cloudy with Light Drizzle 48 9 44 6.7 86 86 NW 25 41 30.03 1017 10 16.09344 0 0
6:15 pm 18:15 Cloudy with Light Drizzle 47 8.6 43 6.3 86 86 NW 22 35 30.03 1017 10 16.09344 0 0
6:35 pm 18:35 Cloudy with Light Rain 46 7.6 42 5.6 87 87 NW 21 33 30.03 1017 10 16.09344 0 0
6:55 pm 18:55 Cloudy with Light Rain 46 7.7 42 5.6 87 87 NW 21 33 30.03 1017 10 16.09344 0 0
7:15 pm 19:15 Cloudy 46 7.5 42 5.4 87 87 NW 17 28 30.03 1017 10 16.09344 0 0
7:35 pm 19:35 Cloudy 45 7 41 4.9 87 87 NW 17 28 30.03 1017 10 16.09344 0 0
7:55 pm 19:55 Cloudy 45 7.1 41 4.9 86 86 NW 14 22 30.03 1017 10 16.09344 0 0
8:15 pm 20:15 Cloudy 44 6.9 40 4.4 84 84 NNW 16 26 30.03 1017 10 16.09344 0 0
8:35 pm 20:35 Mostly Cloudy 44 6.4 39 3.9 84 84 NNW 14 22 30.06 1018 10 16.09344 0 0
8:55 pm 20:55 Partly Cloudy 42 5.7 38 3.2 84 84 NNW 16 26 30.06 1018 10 16.09344 0 0
9:15 pm 21:15 Partly Cloudy 41 5.1 37 3 86 86 NW 12 19 30.09 1019 10 16.09344 0 0
9:35 pm 21:35 Partly Cloudy 40 4.6 37 2.8 88 88 NW 9 15 30.09 1019 10 16.09344 0 0
9:55 pm 21:55 Partly Cloudy 40 4.3 37 2.7 89 89 WNW 8 13 30.09 1019 10 16.09344 0 0
10:15 pm 22:15 Partly Cloudy 39 3.7 36 2.2 90 90 WNW 6 9 30.12 1020 10 16.09344 0 0
10:35 pm 22:35 Partly Cloudy 38 3.1 35 1.8 91 91 WNW 6 9 30.12 1020 10 16.09344 0 0
10:55 pm 22:55 Clear 38 3.2 36 2 92 92 NW 7 11 30.12 1020 10 16.09344 0 0
11:15 pm 23:15 Clear 37 2.7 35 1.5 92 92 W 7 11 30.12 1020 10 16.09344 0 0
11:35 pm 23:35 Clear 37 2.5 35 1.4 93 93 W 5 7 30.12 1020 10 16.09344 0 0
11:55 pm 23:55 Clear 36 2.3 34 1.3 93 93 W 5 7 30.12 1020 10 16.09344 0 0

Powered by AerisWeather